Location: Roanoke
(37.2710°N, 79.9420°W)
Time: 05:52:59
(UTC-05:00)

S-56A Canister/Altair - Pass Details

Date: 25 November 2019
Orbit: 633 x 2499 km, 38.9° (Epoch: 10 December)

Event Time Altitude Azimuth Distance (km) Brightness Sun altitude
Rises 21:15:54 0° 286° (WNW) 4,250 12.0 -49.6°
Reaches altitude 10° 21:19:37 10° 276° (W) 2,960 11.0 -50.3°
Enters shadow 21:20:39 14° 271° (W) 2,615 10.6 -50.5°
Maximum altitude 21:25:15 28° 220° (SW) 1,574 - -51.4°
Drops below altitude 10° 21:29:34 10° 161° (SSE) 2,222 - -52.3°
Sets 21:31:58 0° 149° (SSE) 3,021 - -52.7°
